Location: Unspecified
(40.7945°N, 0.0000°E)
Time: 03:55:42
(UTC+00:00)

Courier 1B - Pass Details

Date: 21 January 2021
Orbit: 962 x 1209 km, 28.3° (Epoch: 25 February)

Event Time Altitude Azimuth Distance (km) Brightness Sun altitude
Rises 22:48:33 0° 206° (SSW) 3,712 - -62.5°
Reaches altitude 10° 22:53:24 10° 175° (S) 2,719 - -63.1°
Maximum altitude 22:55:30 12° 156° (SSE) 2,588 - -63.4°
Drops below altitude 10° 22:57:35 10° 137° (SE) 2,696 - -63.7°
Sets 23:02:19 0° 106° (ESE) 3,633 - -64.2°
